Regional Weather Roundup
Issued by NWS Cleveland, OH

Home | Current Version | Previous Version | Graphics & Text | Print | Product List | Glossary On
Versions: 1 2 3 4 5 6 7 8 9 10 11 12 13 14 15 16 17 18 19 20 21 22 23 24 25 26 27 28 29 30 31 32 33 34 35 36 37 38 39 40 41 42 43 44 45 46 47 48 49 50
485
ASUS41 KCLE 030100
RWRCLE
OHIO REGIONAL WEATHER ROUNDUP
NATIONAL WEATHER SERVICE WILMINGTON, OH
800 PM EST FRI DEC 02 2016

NOTE: "FAIR" INDICATES FEW OR NO CLOUDS BELOW 12,000 FEET WITH NO
SIGNIFICANT WEATHER AND/OR OBSTRUCTIONS TO VISIBILITY.

OHZ001>008-015>018-024>027-034-035-043-044-030200-
   NORTHWEST OHIO

CITY           SKY/WX    TMP DP  RH WIND       PRES   REMARKS
DEFIANCE       FAIR      37  27  67 VRB5G16   30.24R
FINDLAY        CLOUDY    37  32  82 W10       30.21R
TOLEDO EXPRESS CLOUDY    37  29  72 W8        30.21R
TOLEDO EXEC    CLOUDY    39  30  70 W12       30.22R
LIMA           CLOUDY    37  32  82 NW12      30.23R
$$

OHZ009>014-019>023-028>033-038-089-030200-
   NORTHEAST OHIO

CITY           SKY/WX    TMP DP  RH WIND       PRES   REMARKS
CLE-HOPKINS    CLOUDY    39  29  67 W16       30.19R
CLE-LAKEFRONT  CLOUDY    41  31  67 W20       30.15R
CUY CO. ARPT   CLOUDY    41  32  70 NW16G28   30.15R
LORAIN-ELYRIA  MOCLDY    37  28  70 W9        30.18R
ASHTABULA      CLOUDY    38  30  73 W13G23    30.11R
AKRON-CANTON   CLOUDY    37  31  78 W13       30.15R
WOOSTER        NOT AVBL
MANSFIELD      CLOUDY    36  31  82 W8        30.18R
YOUNGSTOWN     CLOUDY    36  33  89 W10       30.11R
$$

OHZ042-051>053-060>062-070>072-077>081-030200-
  SOUTHWEST OHIO

CITY           SKY/WX    TMP DP  RH WIND       PRES   REMARKS
CINC-COVINGTON CLOUDY    39  30  70 W10       30.28R
CINC-LUNKEN    CLOUDY    41  31  67 NW6       30.31R
HAMILTON       CLOUDY    40  30  67 W7        30.30R
DAYTON         NOT AVBL
WRIGHT-PAT AFB NOT AVBL
DAYTON GENERAL CLOUDY    38  29  70 W6        30.26R
WILMINGTON     CLOUDY    37  31  78 W8        30.26R
$$

OHZ036-037-039>041-045>050-054>059-063>069-073>076-082>088-030200-
  CENTRAL AND SOUTHEAST OHIO

CITY           SKY/WX    TMP DP  RH WIND       PRES   REMARKS
COLUMBUS       CLOUDY    38  31  76 W13       30.23R
OSU AIRPORT    CLOUDY    38  31  76 W8        30.23R
BOLTON FIELD   NOT AVBL
RICKENBACK AFB CLOUDY    38  30  73 W9        30.25R
NEWARK         CLOUDY    38  30  73 W12       30.22R
MARION         CLOUDY    38  31  76 W10       30.21R
LANCASTER      CLOUDY    38  30  73 W9        30.24R
ZANESVILLE     CLOUDY    38  30  73 W8        30.21R
NEW PHILLY     CLOUDY    38  32  79 W6        30.19R
$$




USA.gov is the U.S. government's official web portal to all federal, state and local government web resources and services.